Time,TemperatureF,DewpointF,PressureIn,WindDirection,WindDirectionDegrees,WindSpeedMPH,WindSpeedGustMPH,Humidity,HourlyPrecipIn,Conditions,Clouds,dailyrainin,SoftwareType,DateUTC
2013-02-22 00:09:00,16.1,12.0,30.07,South,181,0.0,3.0,84,0.00,,,0.00,weatherlink.com 1.10,2013-02-22 07:09:00,
2013-02-22 00:24:00,16.0,12.0,30.07,SSW,197,0.0,1.0,84,0.00,,,0.00,weatherlink.com 1.10,2013-02-22 07:24:00,
2013-02-22 00:39:00,15.9,12.0,30.07,SSW,192,0.0,2.0,83,0.00,,,0.00,weatherlink.com 1.10,2013-02-22 07:39:00,
2013-02-22 00:54:00,15.6,11.0,30.07,SSE,160,0.0,2.0,83,0.00,,,0.00,weatherlink.com 1.10,2013-02-22 07:54:00,
2013-02-22 01:09:00,15.1,11.0,30.07,South,177,1.0,3.0,82,0.00,,,0.00,weatherlink.com 1.10,2013-02-22 08:09:00,
2013-02-22 01:24:00,14.6,10.0,30.07,SSE,158,1.0,3.0,81,0.00,,,0.00,weatherlink.com 1.10,2013-02-22 08:24:00,
2013-02-22 01:39:00,14.3,10.0,30.07,South,174,0.0,2.0,82,0.00,,,0.00,weatherlink.com 1.10,2013-02-22 08:39:00,
2013-02-22 01:54:00,13.9,9.0,30.06,South,176,0.0,1.0,82,0.00,,,0.00,weatherlink.com 1.10,2013-02-22 08:54:00,
2013-02-22 02:09:00,13.4,9.0,30.05,South,169,0.0,0.0,83,0.00,,,0.00,weatherlink.com 1.10,2013-02-22 09:09:00,
2013-02-22 02:24:00,13.0,9.0,30.05,SSE,156,0.0,1.0,84,0.00,,,0.00,weatherlink.com 1.10,2013-02-22 09:24:00,
2013-02-22 02:39:00,13.1,9.0,30.04,SSE,152,0.0,2.0,84,0.00,,,0.00,weatherlink.com 1.10,2013-02-22 09:39:00,
2013-02-22 02:54:00,13.0,9.0,30.04,South,169,0.0,1.0,84,0.00,,,0.00,weatherlink.com 1.10,2013-02-22 09:54:00,
2013-02-22 03:09:00,12.9,9.0,30.04,SSE,158,0.0,1.0,84,0.00,,,0.00,weatherlink.com 1.10,2013-02-22 10:09:00,
2013-02-22 03:24:00,13.1,9.0,30.04,SE,138,0.0,2.0,84,0.00,,,0.00,weatherlink.com 1.10,2013-02-22 10:24:00,
2013-02-22 03:39:00,13.7,10.0,30.05,South,188,0.0,3.0,83,0.00,,,0.00,weatherlink.com 1.10,2013-02-22 10:39:00,
2013-02-22 03:55:00,14.1,9.0,30.05,SW,225,0.0,2.0,81,0.00,,,0.00,weatherlink.com 1.10,2013-02-22 10:55:00,
2013-02-22 04:10:00,14.1,9.0,30.05,SE,141,0.0,2.0,81,0.00,,,0.00,weatherlink.com 1.10,2013-02-22 11:10:00,
2013-02-22 04:25:00,14.3,10.0,30.05,South,188,0.0,1.0,81,0.00,,,0.00,weatherlink.com 1.10,2013-02-22 11:25:00,
2013-02-22 04:40:00,14.2,10.0,30.05,SE,128,0.0,1.0,82,0.00,,,0.00,weatherlink.com 1.10,2013-02-22 11:40:00,
2013-02-22 04:55:00,14.7,10.0,30.05,ESE,111,0.0,1.0,82,0.00,,,0.00,weatherlink.com 1.10,2013-02-22 11:55:00,
2013-02-22 05:10:00,15.0,10.0,30.06,East,85,0.0,1.0,81,0.00,,,0.00,weatherlink.com 1.10,2013-02-22 12:10:00,
2013-02-22 05:25:00,15.1,10.0,30.06,ENE,76,0.0,0.0,81,0.00,,,0.00,weatherlink.com 1.10,2013-02-22 12:25:00,
2013-02-22 05:40:00,15.2,11.0,30.06,South,184,0.0,1.0,82,0.00,,,0.00,weatherlink.com 1.10,2013-02-22 12:40:00,
2013-02-22 05:55:00,15.1,11.0,30.07,South,183,0.0,0.0,82,0.00,,,0.00,weatherlink.com 1.10,2013-02-22 12:55:00,
2013-02-22 06:10:00,15.1,11.0,30.07,SSW,193,0.0,0.0,82,0.00,,,0.00,weatherlink.com 1.10,2013-02-22 13:10:00,
2013-02-22 06:25:00,14.9,10.0,30.08,SSE,160,0.0,1.0,81,0.00,,,0.00,weatherlink.com 1.10,2013-02-22 13:25:00,
2013-02-22 06:40:00,15.0,10.0,30.08,SSE,158,0.0,1.0,81,0.00,,,0.00,weatherlink.com 1.10,2013-02-22 13:40:00,
2013-02-22 06:55:00,15.4,11.0,30.09,SSW,192,0.0,1.0,81,0.00,,,0.00,weatherlink.com 1.10,2013-02-22 13:55:00,
2013-02-22 07:10:00,16.3,11.0,30.10,SSE,168,0.0,1.0,80,0.00,,,0.00,weatherlink.com 1.10,2013-02-22 14:10:00,
2013-02-22 07:25:00,17.5,12.0,30.11,ESE,122,0.0,3.0,78,0.00,,,0.00,weatherlink.com 1.10,2013-02-22 14:25:00,
2013-02-22 07:40:00,18.5,13.0,30.11,South,187,0.0,1.0,78,0.00,,,0.00,weatherlink.com 1.10,2013-02-22 14:40:00,
2013-02-22 07:55:00,19.8,14.0,30.12,SSW,200,0.0,1.0,77,0.00,,,0.00,weatherlink.com 1.10,2013-02-22 14:55:00,
2013-02-22 08:10:00,21.3,15.0,30.13,SSE,159,0.0,1.0,75,0.00,,,0.00,weatherlink.com 1.10,2013-02-22 15:10:00,
2013-02-22 08:25:00,23.2,16.0,30.13,SSW,210,0.0,1.0,73,0.00,,,0.00,weatherlink.com 1.10,2013-02-22 15:25:00,
2013-02-22 08:40:00,24.7,16.0,30.12,SSW,205,0.0,2.0,70,0.00,,,0.00,weatherlink.com 1.10,2013-02-22 15:40:00,
2013-02-22 08:55:00,26.3,17.0,30.12,East,94,1.0,2.0,69,0.00,,,0.00,weatherlink.com 1.10,2013-02-22 15:55:00,
2013-02-22 09:10:00,27.3,17.0,30.13,SE,146,0.0,3.0,64,0.00,,,0.00,weatherlink.com 1.10,2013-02-22 16:10:00,
2013-02-22 09:25:00,28.2,17.0,30.13,SSW,197,1.0,3.0,62,0.00,,,0.00,weatherlink.com 1.10,2013-02-22 16:25:00,
2013-02-22 09:40:00,28.1,16.0,30.13,East,88,1.0,4.0,62,0.00,,,0.00,weatherlink.com 1.10,2013-02-22 16:40:00,
2013-02-22 09:55:00,28.2,16.0,30.13,South,183,0.0,4.0,61,0.00,,,0.00,weatherlink.com 1.10,2013-02-22 16:55:00,
2013-02-22 10:10:00,28.7,17.0,30.13,East,94,2.0,5.0,61,0.00,,,0.00,weatherlink.com 1.10,2013-02-22 17:10:00,
2013-02-22 10:25:00,29.1,16.0,30.13,SE,131,1.0,5.0,59,0.00,,,0.00,weatherlink.com 1.10,2013-02-22 17:25:00,
2013-02-22 10:40:00,29.2,17.0,30.12,SE,146,2.0,6.0,60,0.00,,,0.00,weatherlink.com 1.10,2013-02-22 17:40:00,
2013-02-22 10:57:00,29.6,17.0,30.12,ESE,107,2.0,5.0,59,0.00,,,0.00,weatherlink.com 1.10,2013-02-22 17:57:00,
2013-02-22 11:11:00,29.5,17.0,30.12,ENE,78,1.0,5.0,59,0.00,,,0.00,weatherlink.com 1.10,2013-02-22 18:11:00,
2013-02-22 11:26:00,31.0,18.0,30.12,East,86,1.0,3.0,60,0.00,,,0.00,weatherlink.com 1.10,2013-02-22 18:26:00,
2013-02-22 11:41:00,31.6,17.0,30.12,ENE,59,2.0,4.0,56,0.00,,,0.00,weatherlink.com 1.10,2013-02-22 18:41:00,
2013-02-22 11:56:00,31.6,18.0,30.12,East,86,1.0,4.0,57,0.00,,,0.00,weatherlink.com 1.10,2013-02-22 18:56:00,
2013-02-22 12:11:00,32.4,17.0,30.11,SE,134,0.0,5.0,54,0.00,,,0.00,weatherlink.com 1.10,2013-02-22 19:11:00,
2013-02-22 12:26:00,32.8,18.0,30.11,East,94,1.0,5.0,54,0.00,,,0.00,weatherlink.com 1.10,2013-02-22 19:26:00,
2013-02-22 12:41:00,33.1,17.0,30.10,SE,146,2.0,7.0,53,0.00,,,0.00,weatherlink.com 1.10,2013-02-22 19:41:00,
2013-02-22 12:56:00,33.2,16.0,30.10,East,82,2.0,6.0,50,0.00,,,0.00,weatherlink.com 1.10,2013-02-22 19:56:00,
2013-02-22 13:11:00,33.8,17.0,30.09,ENE,69,1.0,5.0,50,0.00,,,0.00,weatherlink.com 1.10,2013-02-22 20:11:00,
2013-02-22 13:26:00,34.6,16.0,30.08,SE,131,0.0,4.0,46,0.00,,,0.00,weatherlink.com 1.10,2013-02-22 20:26:00,
2013-02-22 13:41:00,35.4,16.0,30.07,ENE,72,1.0,7.0,46,0.00,,,0.00,weatherlink.com 1.10,2013-02-22 20:41:00,
2013-02-22 13:56:00,34.1,16.0,30.07,ENE,71,1.0,5.0,48,0.00,,,0.00,weatherlink.com 1.10,2013-02-22 20:56:00,
2013-02-22 14:11:00,33.8,17.0,30.07,WSW,239,0.0,7.0,50,0.00,,,0.00,weatherlink.com 1.10,2013-02-22 21:11:00,
2013-02-22 14:26:00,33.2,16.0,30.07,East,84,1.0,5.0,49,0.00,,,0.00,weatherlink.com 1.10,2013-02-22 21:26:00,
2013-02-22 14:41:00,34.5,16.0,30.06,ESE,104,1.0,3.0,48,0.00,,,0.00,weatherlink.com 1.10,2013-02-22 21:41:00,
2013-02-22 15:11:00,35.6,16.0,30.06,ESE,115,0.0,4.0,45,0.00,,,0.00,weatherlink.com 1.10,2013-02-22 22:11:00,
2013-02-22 15:26:00,35.4,15.0,30.06,ENE,77,1.0,4.0,44,0.00,,,0.00,weatherlink.com 1.10,2013-02-22 22:26:00,
2013-02-22 15:41:00,35.4,16.0,30.05,ENE,69,0.0,3.0,45,0.00,,,0.00,weatherlink.com 1.10,2013-02-22 22:41:00,
2013-02-22 15:56:00,35.1,15.0,30.05,ESE,118,0.0,4.0,44,0.00,,,0.00,weatherlink.com 1.10,2013-02-22 22:56:00,
2013-02-22 16:11:00,34.5,15.0,30.05,NE,49,2.0,5.0,45,0.00,,,0.00,weatherlink.com 1.10,2013-02-22 23:11:00,
2013-02-22 16:26:00,33.9,14.0,30.05,WSW,254,0.0,4.0,45,0.00,,,0.00,weatherlink.com 1.10,2013-02-22 23:26:00,
2013-02-22 16:41:00,33.7,15.0,30.05,East,91,0.0,3.0,47,0.00,,,0.00,weatherlink.com 1.10,2013-02-22 23:41:00,
2013-02-22 16:56:00,32.9,15.0,30.05,ENE,74,0.0,3.0,47,0.00,,,0.00,weatherlink.com 1.10,2013-02-22 23:56:00,
2013-02-22 17:11:00,32.1,15.0,30.06,ENE,71,2.0,4.0,50,0.00,,,0.00,weatherlink.com 1.10,2013-02-23 00:11:00,
2013-02-22 17:26:00,30.8,16.0,30.06,ESE,106,0.0,3.0,54,0.00,,,0.00,weatherlink.com 1.10,2013-02-23 00:26:00,
2013-02-22 17:41:00,29.9,16.0,30.05,ESE,108,0.0,5.0,57,0.00,,,0.00,weatherlink.com 1.10,2013-02-23 00:41:00,
2013-02-22 17:56:00,29.1,17.0,30.05,ENE,77,0.0,3.0,60,0.00,,,0.00,weatherlink.com 1.10,2013-02-23 00:56:00,
2013-02-22 18:11:00,28.3,17.0,30.05,SE,136,0.0,3.0,62,0.00,,,0.00,weatherlink.com 1.10,2013-02-23 01:11:00,
2013-02-22 18:26:00,27.6,17.0,30.05,SSW,197,0.0,2.0,64,0.00,,,0.00,weatherlink.com 1.10,2013-02-23 01:26:00,
2013-02-22 18:41:00,27.5,17.0,30.05,SSW,198,0.0,3.0,66,0.00,,,0.00,weatherlink.com 1.10,2013-02-23 01:41:00,
2013-02-22 18:56:00,27.5,18.0,30.05,SSW,197,0.0,2.0,67,0.00,,,0.00,weatherlink.com 1.10,2013-02-23 01:56:00,
2013-02-22 19:11:00,27.6,18.0,30.05,SSW,197,0.0,5.0,66,0.00,,,0.00,weatherlink.com 1.10,2013-02-23 02:11:00,
2013-02-22 19:26:00,27.3,18.0,30.06,SSW,198,0.0,2.0,67,0.00,,,0.00,weatherlink.com 1.10,2013-02-23 02:26:00,
2013-02-22 19:41:00,26.7,17.0,30.06,SSW,197,0.0,2.0,68,0.00,,,0.00,weatherlink.com 1.10,2013-02-23 02:41:00,
2013-02-22 19:56:00,25.9,17.0,30.06,SSW,197,0.0,1.0,69,0.00,,,0.00,weatherlink.com 1.10,2013-02-23 02:56:00,
2013-02-22 20:11:00,25.0,17.0,30.06,SSW,197,0.0,1.0,72,0.00,,,0.00,weatherlink.com 1.10,2013-02-23 03:11:00,
2013-02-22 20:26:00,24.8,17.0,30.06,SSW,197,0.0,1.0,73,0.00,,,0.00,weatherlink.com 1.10,2013-02-23 03:26:00,
2013-02-22 20:41:00,24.3,17.0,30.06,SSW,198,0.0,1.0,74,0.00,,,0.00,weatherlink.com 1.10,2013-02-23 03:41:00,
2013-02-22 20:56:00,24.2,17.0,30.06,SSW,203,1.0,2.0,75,0.00,,,0.00,weatherlink.com 1.10,2013-02-23 03:56:00,
2013-02-22 21:11:00,23.9,17.0,30.05,SSW,197,0.0,1.0,75,0.00,,,0.00,weatherlink.com 1.10,2013-02-23 04:11:00,
2013-02-22 21:26:00,23.4,17.0,30.05,SSW,197,0.0,1.0,76,0.00,,,0.00,weatherlink.com 1.10,2013-02-23 04:26:00,
2013-02-22 21:41:00,22.8,17.0,30.05,SSW,197,0.0,1.0,77,0.00,,,0.00,weatherlink.com 1.10,2013-02-23 04:41:00,
2013-02-22 21:56:00,22.5,17.0,30.04,SSW,197,0.0,1.0,78,0.00,,,0.00,weatherlink.com 1.10,2013-02-23 04:56:00,
2013-02-22 22:11:00,22.0,16.0,30.04,SSW,197,0.0,2.0,78,0.00,,,0.00,weatherlink.com 1.10,2013-02-23 05:11:00,
2013-02-22 22:26:00,21.6,16.0,30.03,SSW,212,0.0,1.0,79,0.00,,,0.00,weatherlink.com 1.10,2013-02-23 05:26:00,
2013-02-22 22:41:00,21.3,16.0,30.03,SW,235,0.0,2.0,79,0.00,,,0.00,weatherlink.com 1.10,2013-02-23 05:41:00,
2013-02-22 22:56:00,21.2,16.0,30.03,SW,235,0.0,3.0,80,0.00,,,0.00,weatherlink.com 1.10,2013-02-23 05:56:00,
2013-02-22 23:11:00,21.1,16.0,30.03,SW,229,0.0,2.0,79,0.00,,,0.00,weatherlink.com 1.10,2013-02-23 06:11:00,
2013-02-22 23:26:00,20.8,16.0,30.03,SSW,197,1.0,3.0,80,0.00,,,0.00,weatherlink.com 1.10,2013-02-23 06:26:00,
2013-02-22 23:41:00,20.7,15.0,30.02,SSW,198,0.0,3.0,80,0.00,,,0.00,weatherlink.com 1.10,2013-02-23 06:41:00,
2013-02-22 23:56:00,20.4,15.0,30.01,SSW,197,0.0,2.0,80,0.00,,,0.00,weatherlink.com 1.10,2013-02-23 06:56:00,